TimeCDT,TemperatureF,Dew PointF,Humidity,Sea Level PressureIn,VisibilityMPH,Wind Direction,Wind SpeedMPH,Gust SpeedMPH,PrecipitationIn,Events,Conditions,WindDirDegrees,DateUTC
12:15 AM,64.4,59.0,83,30.10,10.0,East,9.2,-,N/A,,Overcast,90,2013-05-24 05:15:00
12:35 AM,64.4,59.0,83,30.10,10.0,East,9.2,-,N/A,,Overcast,90,2013-05-24 05:35:00
12:55 AM,64.4,59.0,83,30.11,10.0,East,8.1,-,N/A,,Overcast,100,2013-05-24 05:55:00
1:15 AM,64.4,59.0,83,30.12,10.0,East,6.9,-,N/A,,Overcast,100,2013-05-24 06:15:00
1:35 AM,64.4,59.0,83,30.13,10.0,East,8.1,-,N/A,,Overcast,90,2013-05-24 06:35:00
1:55 AM,64.4,59.0,83,30.12,10.0,East,8.1,-,N/A,,Overcast,100,2013-05-24 06:55:00
2:15 AM,62.6,59.0,88,30.11,10.0,East,9.2,-,N/A,,Overcast,90,2013-05-24 07:15:00
2:35 AM,62.6,59.0,88,30.11,10.0,ENE,6.9,-,N/A,,Overcast,70,2013-05-24 07:35:00
2:55 AM,64.4,60.8,88,30.12,10.0,ENE,8.1,-,N/A,,Overcast,70,2013-05-24 07:55:00
3:15 AM,62.6,59.0,88,30.12,10.0,East,9.2,-,N/A,,Overcast,80,2013-05-24 08:15:00
3:35 AM,62.6,57.2,82,30.12,10.0,East,11.5,-,N/A,,Overcast,80,2013-05-24 08:35:00
4:35 AM,60.8,59.0,94,30.10,10.0,ESE,12.7,16.1,N/A,,Mostly Cloudy,110,2013-05-24 09:35:00
4:55 AM,60.8,59.0,94,30.10,7.0,ESE,12.7,20.7,N/A,,Mostly Cloudy,110,2013-05-24 09:55:00
5:15 AM,60.8,59.0,94,30.11,7.0,ESE,12.7,-,N/A,,Overcast,110,2013-05-24 10:15:00
5:35 AM,60.8,59.0,94,30.11,7.0,ESE,15.0,20.7,N/A,,Overcast,120,2013-05-24 10:35:00
5:55 AM,60.8,59.0,94,30.10,7.0,SE,13.8,19.6,N/A,,Overcast,130,2013-05-24 10:55:00
6:15 AM,60.8,59.0,94,30.12,7.0,SE,13.8,20.7,N/A,,Overcast,130,2013-05-24 11:15:00
6:35 AM,60.8,59.0,94,30.12,5.0,SE,13.8,18.4,N/A,,Overcast,130,2013-05-24 11:35:00
6:55 AM,60.8,59.0,94,30.13,7.0,ESE,10.4,-,N/A,,Overcast,120,2013-05-24 11:55:00
7:15 AM,62.6,59.0,88,30.14,5.0,ESE,5.8,-,N/A,,Overcast,120,2013-05-24 12:15:00
7:35 AM,62.6,59.0,88,30.15,5.0,ESE,6.9,-,N/A,,Overcast,110,2013-05-24 12:35:00
7:55 AM,62.6,59.0,88,30.14,5.0,ESE,5.8,-,N/A,,Overcast,110,2013-05-24 12:55:00
8:15 AM,62.6,60.8,94,30.14,5.0,ESE,9.2,-,N/A,,Overcast,120,2013-05-24 13:15:00
8:35 AM,64.4,60.8,88,30.15,5.0,SE,12.7,-,N/A,,Overcast,130,2013-05-24 13:35:00
8:55 AM,64.4,60.8,88,30.15,5.0,SE,10.4,-,N/A,,Overcast,130,2013-05-24 13:55:00
9:15 AM,64.4,60.8,88,30.16,7.0,SE,10.4,-,N/A,,Overcast,130,2013-05-24 14:15:00
9:35 AM,66.2,59.0,78,30.16,10.0,SSE,11.5,17.3,N/A,,Overcast,150,2013-05-24 14:35:00
9:55 AM,68.0,59.0,73,30.17,10.0,SSE,12.7,-,N/A,,Mostly Cloudy,150,2013-05-24 14:55:00
10:15 AM,69.8,59.0,68,30.17,10.0,South,13.8,18.4,N/A,,Scattered Clouds,170,2013-05-24 15:15:00
10:35 AM,71.6,59.0,64,30.17,10.0,SSE,10.4,-,N/A,,Clear,160,2013-05-24 15:35:00
10:55 AM,73.4,59.0,61,30.16,10.0,South,12.7,-,N/A,,Clear,170,2013-05-24 15:55:00
11:15 AM,75.2,59.0,57,30.15,10.0,SSE,12.7,18.4,N/A,,Clear,150,2013-05-24 16:15:00
11:35 AM,75.2,57.2,53,30.14,10.0,SSE,15.0,21.9,N/A,,Clear,160,2013-05-24 16:35:00
11:55 AM,77.0,59.0,54,30.14,10.0,SSE,9.2,18.4,N/A,,Clear,160,2013-05-24 16:55:00
12:15 PM,77.0,59.0,54,30.13,10.0,SSE,19.6,23.0,N/A,,Clear,150,2013-05-24 17:15:00
12:35 PM,77.0,59.0,54,30.14,10.0,South,13.8,21.9,N/A,,Clear,170,2013-05-24 17:35:00
12:55 PM,77.0,59.0,54,30.14,10.0,South,15.0,24.2,N/A,,Clear,180,2013-05-24 17:55:00
1:15 PM,78.8,57.2,47,30.13,10.0,South,18.4,26.5,N/A,,Clear,180,2013-05-24 18:15:00
1:35 PM,80.6,59.0,48,30.12,10.0,SSE,15.0,24.2,N/A,,Clear,160,2013-05-24 18:35:00
1:55 PM,80.6,59.0,48,30.12,10.0,South,20.7,-,N/A,,Clear,170,2013-05-24 18:55:00
2:15 PM,80.6,59.0,48,30.11,10.0,SSE,24.2,27.6,N/A,,Clear,160,2013-05-24 19:15:00
2:35 PM,80.6,59.0,48,30.11,10.0,SSE,20.7,29.9,N/A,,Clear,160,2013-05-24 19:35:00
2:55 PM,82.4,59.0,45,30.10,10.0,South,17.3,25.3,N/A,,Clear,170,2013-05-24 19:55:00
3:15 PM,82.4,59.0,45,30.09,10.0,South,20.7,27.6,N/A,,Clear,170,2013-05-24 20:15:00
3:35 PM,82.4,59.0,45,30.08,10.0,SSE,17.3,27.6,N/A,,Clear,160,2013-05-24 20:35:00
3:55 PM,86.0,57.2,37,30.07,10.0,SSE,18.4,27.6,N/A,,Clear,160,2013-05-24 20:55:00
4:15 PM,86.0,55.4,35,30.06,10.0,South,21.9,33.4,N/A,,Clear,170,2013-05-24 21:15:00
4:35 PM,87.8,53.6,31,30.04,10.0,SSE,25.3,31.1,N/A,,Clear,160,2013-05-24 21:35:00
4:55 PM,87.8,48.2,25,30.03,10.0,South,27.6,-,N/A,,Clear,180,2013-05-24 21:55:00
5:15 PM,87.8,46.4,24,30.03,10.0,South,26.5,36.8,N/A,,Clear,170,2013-05-24 22:15:00
5:55 PM,87.8,46.4,24,30.01,10.0,South,26.5,34.5,N/A,,Clear,180,2013-05-24 22:55:00
6:15 PM,87.8,46.4,24,30.01,10.0,South,26.5,34.5,N/A,,Clear,170,2013-05-24 23:15:00
6:35 PM,86.0,46.4,25,30.01,10.0,South,29.9,35.7,N/A,,Clear,170,2013-05-24 23:35:00
6:55 PM,86.0,46.4,25,30.01,10.0,South,27.6,34.5,N/A,,Clear,170,2013-05-24 23:55:00
7:15 PM,86.0,46.4,25,30.00,10.0,SSE,26.5,35.7,N/A,,Clear,160,2013-05-25 00:15:00
7:35 PM,86.0,46.4,25,30.00,10.0,South,26.5,35.7,N/A,,Clear,170,2013-05-25 00:35:00
7:55 PM,84.2,46.4,27,30.01,10.0,South,23.0,32.2,N/A,,Clear,170,2013-05-25 00:55:00
8:15 PM,82.4,46.4,28,30.00,10.0,South,24.2,31.1,N/A,,Clear,170,2013-05-25 01:15:00
8:35 PM,80.6,46.4,30,30.01,10.0,South,18.4,27.6,N/A,,Clear,180,2013-05-25 01:35:00
8:55 PM,80.6,46.4,30,30.01,10.0,South,16.1,-,N/A,,Clear,170,2013-05-25 01:55:00
9:15 PM,78.8,48.2,34,30.02,10.0,South,17.3,21.9,N/A,,Clear,170,2013-05-25 02:15:00
9:35 PM,78.8,48.2,34,30.03,10.0,South,19.6,24.2,N/A,,Clear,170,2013-05-25 02:35:00
9:55 PM,77.0,50.0,39,30.03,10.0,South,17.3,24.2,N/A,,Clear,170,2013-05-25 02:55:00
10:15 PM,77.0,50.0,39,30.05,10.0,South,17.3,21.9,N/A,,Clear,170,2013-05-25 03:15:00
10:35 PM,77.0,51.8,41,30.06,10.0,SSE,21.9,27.6,N/A,,Clear,160,2013-05-25 03:35:00
10:55 PM,75.2,55.4,50,30.08,10.0,SSE,25.3,33.4,N/A,,Clear,160,2013-05-25 03:55:00
11:15 PM,73.4,55.4,53,30.09,10.0,South,21.9,28.8,N/A,,Clear,170,2013-05-25 04:15:00
11:35 PM,71.6,55.4,57,30.10,10.0,South,20.7,27.6,N/A,,Clear,170,2013-05-25 04:35:00
11:55 PM,71.6,55.4,57,30.10,10.0,SSE,19.6,27.6,N/A,,Clear,160,2013-05-25 04:55:00